Location: Newark
(48.1500°N, 2.9667°W)
Time: 18:20:37
(UTC+00:00)

A-11 Canister half - Pass Details

Date: 26 January 2020
Orbit: 1525 x 1684 km, 47.3° (Epoch: 17 February)

Event Time Altitude Azimuth Distance (km) Brightness Sun altitude
Rises 15:51:20 0° 195° (SSW) 4,659 12.6 8.7°
Reaches altitude 10° 15:55:01 10° 183° (S) 3,683 11.8 8.3°
Maximum altitude 16:02:07 25° 132° (SE) 2,692 10.3 7.4°
Drops below altitude 10° 16:09:19 10° 82° (E) 3,747 10.5 6.4°
Sets 16:13:04 0° 70° (ENE) 4,756 10.9 5.9°
